This is the latest recevied weather packets stored in our database for station/object YM2KRB-11. If no packets are shown the sender has not sent any weather packets the latest 10 day(s).
| Time | Temp. | Humidity | Pressure | Rain* | Wind** | Luminosity | Snow |
|---|---|---|---|---|---|---|---|
| 1777958631 | 13.89° C | 52% | 939.7 hPa | - | - | - | - |
| 1777957431 | 14.44° C | 52% | 939.7 hPa | - | - | - | - |
| 1777956230 | 12.78° C | 56% | 939.6 hPa | - | - | - | - |
| 1777955029 | 12.78° C | 56% | 939.4 hPa | - | - | - | - |
| 1777953828 | 12.78° C | 56% | 939.4 hPa | - | - | - | - |
| 1777943021 | 9.44° C | 64% | 938.4 hPa | - | - | - | - |
| 1777932214 | 9.44° C | 66% | 938.2 hPa | - | - | - | - |
| 1777931013 | 9.44° C | 65% | 938.2 hPa | - | - | - | - |
| 1777929812 | 9.44° C | 64% | 938.2 hPa | - | - | - | - |
| 1777926210 | 9.44° C | 63% | 938.2 hPa | - | - | - | - |
| 1777925009 | 9.44° C | 61% | 938.1 hPa | - | - | - | - |
| 1777922608 | 9.44° C | 60% | 937.9 hPa | - | - | - | - |
| 1777921407 | 10° C | 57% | 937.9 hPa | - | - | - | - |
| 1777919005 | 11.11° C | 56% | 937.5 hPa | - | - | - | - |
| 1777917804 | 10° C | 57% | 937.3 hPa | - | - | - | - |
| 1777915402 | 10.56° C | 56% | 936.7 hPa | - | - | - | - |
| 1777914202 | 10° C | 57% | 936.6 hPa | - | - | - | - |
| 1777911800 | 10° C | 57% | 936.4 hPa | - | - | - | - |
| 1777909399 | 11.67° C | 55% | 936 hPa | - | - | - | - |
| 1777908198 | 11.67° C | 53% | 935.8 hPa | - | - | - | - |
| 1777906997 | 12.78° C | 52% | 935.7 hPa | - | - | - | - |
| 1777905796 | 12.22° C | 53% | 935.6 hPa | - | - | - | - |
| 1777904595 | 12.78° C | 52% | 935.4 hPa | - | - | - | - |
| 1777903395 | 12.22° C | 53% | 935.4 hPa | - | - | - | - |
| 1777902194 | 12.22° C | 53% | 935.3 hPa | - | - | - | - |
* Rain since midnight (hover to see other rain measurements)
** Current wind speed in m/s (hover to see current wind gust speed)